Retour au catalogue

FENGYUN 4B

ActifMétéoGEO
NORAD 48808·PAYLOAD·🇨🇳 China

Lancé Jun 2, 2021 depuis Xichang Satellite Launch Center

Loading…

TLE

FraisSource: Space-Track

Époque: Sep 14, 2026, 22:51 UTC

1 48808U 21047A   26257.95224755 -.00000336  00000-0  00000-0 0  9996
2 48808   0.3739  80.9882 0007692 276.3388  83.9840  1.00265872 19461

Suivez FENGYUN 4B en temps réel avec AllMySat

Download on the App Store